Location: Aarlanderveen
(52.1402°N, 4.7322°E)
Time: 16:00:23
(UTC+00:00)

Daily predictions for brighter satellites

Satellite Brightness Start Highest point End
(mag) Time Altitude Azimuth Time Altitude Azimuth Time Altitude Azimuth
ATLAS CENTAUR R/B 3.7 16:31:20 10° WSW 16:36:29 89° SE 16:51:16 10° ENE
Timation 2 Rocket 4.1 16:40:42 10° SSW 16:46:53 88° WNW 16:53:24 10° NNE
CORIOLIS 4.1 16:44:09 10° SSE 16:49:28 68° ENE 16:54:48 10° NNW
Cosmos 2333 Rocket 4.4 16:44:38 10° NW 16:49:37 32° WSW 16:54:33 10° SSW
Cosmos 2341 Rocket 4.4 16:45:04 10° SSE 16:50:59 42° E 16:56:53 10° NNE
Cosmos 1125 Rocket 3.5 16:47:47 10° SSW 16:52:59 87° ESE 16:58:16 10° NNE
Cosmos 1939 Rocket 4.4 16:51:57 10° E 16:54:28 16° ENE 16:56:59 10° NNE
USA 32 4.5 16:49:56 10° SSE 16:54:48 41° E 16:59:42 10° NNE
Cosmos 1689 Rocket 2.6 16:51:54 10° N 16:54:49 62° WNW 16:57:45 10° SSW
Cosmos 1242 Rocket 2.9 16:53:23 10° SSW 16:56:55 68° WNW 17:00:31 10° N
Cosmos 1602 Rocket 3.5 16:54:55 10° S 16:59:17 81° E 17:03:39 10° NNE
SL-16 R/B 2.3 16:53:41 10° NNW 16:59:20 60° NE 17:04:56 10° SE
Envisat 3.0 16:54:53 10° SSE 16:59:54 62° ENE 17:04:56 10° N
Meteor 2-10 Rocket 3.7 16:59:16 10° N 17:04:25 48° ENE 17:09:22 10° SE
Cosmos 1271 Rocket 3.7 17:01:08 10° SSW 17:04:46 47° WNW 17:08:28 10° N
USA 267 3.5 17:01:35 10° ENE 17:08:04 61° SE 17:14:32 10° SW
Cosmos 2082 4.5 17:05:50 10° SSE 17:10:45 32° ESE 17:15:44 10° NE
Cosmos 2219 3.2 17:05:20 10° SSW 17:10:55 72° ESE 17:16:35 10° NNE
Cosmos 1603 4.5 17:06:50 10° NNW 17:11:53 31° NE 17:16:52 10° ESE
COSMO-SKYMED 1 3.5 17:08:56 10° NE 17:12:44 29° E 17:16:31 10° SSE
Cosmos 1953 Rocket 4.3 17:09:02 10° SSE 17:13:05 34° E 17:17:07 10° NNE
Cosmos 2218 Rocket 4.5 17:08:57 10° SSE 17:14:47 40° E 17:20:41 10° NNE
COBE Rocket 4.5 17:10:21 10° N 17:15:30 67° WNW 17:20:38 10° SSW
Cosmos 2297 Rocket 2.3 17:10:57 10° SSW 17:16:29 59° ESE 17:22:04 10° NE
Cosmos 1758 Rocket 3.6 17:12:57 10° S 17:17:10 57° E 17:21:25 10° NNE
PSLV R/B 4.0 17:14:01 10° NNE 17:18:07 87° WNW 17:22:14 10° SSW
Cosmos 1626 Rocket 4.4 17:15:17 10° SSW 17:19:30 53° WNW 17:23:46 10° N
Cosmos 2154 Rocket 4.2 17:17:14 10° SSW 17:23:30 77° WNW 17:29:46 10° N
Starlink AR 2.4 17:21:27 10° W 17:24:05 70° N 17:25:52 18° E
H-2A R/B 4.0 17:21:07 10° S 17:24:51 46° W 17:28:39 10° NNW
Cosmos 2227 Rocket 2.2 17:24:07 10° SSW 17:29:42 67° ESE 17:35:20 10° NE
ISS -2.9 17:26:34 10° SW 17:29:45 39° SSE 17:31:56 17° E
SJ 16-02 4.1 17:29:21 10° NW 17:30:27 11° NW 17:31:33 10° NNW
Starlink T 2.9 17:27:56 10° W 17:31:07 74° N 17:33:12 20° E
NOAA 11 4.4 17:27:15 10° SE 17:32:31 48° ENE 17:37:46 10° N
Starlink N 2.9 17:29:50 10° W 17:33:01 74° N 17:35:02 20° E
CZ-4 R/B 1.5 17:29:45 10° SSE 17:33:46 56° ENE 17:37:54 10° N
ATLAS CENTAUR R/B 1.2 17:30:22 10° NW 17:34:31 88° NE 17:38:20 10° SE
YAOGAN 6 2.6 17:31:22 10° SSE 17:35:03 89° ENE 17:38:42 10° NNW
Starlink Q 2.9 17:31:59 10° W 17:35:10 74° N 17:37:06 22° E
Shenzhou-11 Module 4.4 17:35:38 10° SSW 17:36:44 12° S 17:37:51 10° SSE
Starlink P 2.9 17:33:58 10° W 17:37:10 75° N 17:39:01 23° E
Cosmos 1328 4.1 17:34:53 10° SSE 17:38:43 45° E 17:42:35 10° NNE
Starlink U 2.9 17:35:57 10° W 17:39:09 75° N 17:40:56 24° E
Cosmos 1825 Rocket 3.4 17:35:34 10° S 17:39:54 83° ESE 17:44:16 10° NNE
Meteor 1-21 Rocket 4.2 17:34:38 10° S 17:40:17 86° ESE 17:46:06 10° NNE
USA 116 4.4 17:40:55 21° E 17:40:55 21° E 17:43:16 10° SSE
Starlink B 2.9 17:37:58 10° W 17:41:10 75° N 17:42:52 25° E
Cosmos 1943 3.7 17:37:31 10° NNW 17:42:46 37° NE 17:47:06 14° ESE
Cosmos 2366 rocket 4.1 17:36:55 10° S 17:42:59 57° E 17:49:10 10° NNE
Ariane Rocket 3.7 17:39:05 10° ESE 17:43:29 31° ENE 17:47:55 10° N
USA 234 4.1 17:38:41 10° SE 17:45:01 52° SW 17:51:24 10° WNW
FengYun 1-2 T 4.4 17:39:52 10° SSE 17:45:32 85° WSW 17:51:15 10° NNW
Cosmos 1626 4.4 17:46:10 10° SW 17:49:16 25° WNW 17:52:26 10° NNW
Cosmos 2221 3.0 17:45:47 10° N 17:49:44 35° ENE 17:53:42 10° SE
Starlink D 2.8 17:51:41 10° W 17:54:54 79° N 17:56:06 35° E
Okean-O 3.6 17:52:00 10° S 17:56:20 51° W 18:00:42 10° NNW
Cosmos-2242 3.9 17:52:09 10° NNW 17:56:22 51° W 18:00:30 10° S
Starlink S 2.8 17:53:46 10° W 17:57:00 80° N 17:58:07 37° E
Cosmos 1356 Rocket 3.2 17:53:44 10° N 17:57:48 73° ENE 18:01:54 10° SSE
ADEOS Rocket 3.9 17:52:14 10° NNE 17:58:19 35° E 18:04:54 10° SSE
CSL-04 Debris 4.1 17:53:36 10° SSE 17:58:59 77° ENE 18:04:24 10° NNW
Starlink C 2.8 17:55:49 10° W 17:59:03 80° N 18:00:05 40° E
Cosmos 614 Rocket 4.3 17:54:17 10° NNW 17:59:16 43° ENE 18:03:06 16° ESE
Cosmos 44 3.0 17:55:04 10° SW 17:59:36 77° SE 18:02:12 24° NE
ERBS 2.6 17:57:12 10° WSW 18:00:30 58° NNW 18:01:43 33° NE
SKYMED 2 3.5 17:56:38 10° NNE 18:01:01 79° ESE 18:05:21 10° S
Starlink E 2.8 17:57:56 10° W 18:01:09 81° N 18:02:07 42° E
ATLAS 5 CENTAUR R/B 3.2 17:58:48 10° NW 18:02:37 59° NE 18:15:53 10° ESE
Starlink J 2.8 18:00:02 10° W 18:03:16 82° N 18:04:09 45° E
Starlink AS 2.6 18:01:29 10° WNW 18:04:25 83° N 18:04:57 56° E
Starlink BA 2.6 18:01:43 10° WNW 18:04:39 83° NNE 18:05:10 56° E
Starlink AU 2.6 18:01:56 10° WNW 18:04:52 83° NNE 18:05:23 57° E
Starlink AT 2.6 18:02:09 10° WNW 18:05:05 84° N 18:05:35 57° E
Starlink BB 2.6 18:02:23 10° WNW 18:05:19 84° NNE 18:05:49 58° E
Starlink V 2.8 18:02:07 10° W 18:05:22 83° N 18:06:10 48° E
Starlink BC 2.6 18:02:36 10° WNW 18:05:32 84° N 18:06:01 58° E
Starlink BK 2.6 18:02:49 10° WNW 18:05:46 84° N 18:06:14 59° E
Starlink AY 2.6 18:03:04 10° WNW 18:06:00 84° NNE 18:06:28 59° E
Starlink AW 2.6 18:03:17 10° WNW 18:06:13 84° N 18:06:41 59° E
Starlink BJ 2.6 18:03:30 10° WNW 18:06:27 84° NNE 18:06:53 60° E
Cosmos 1703 3.2 18:02:31 10° S 18:06:30 86° E 18:10:31 10° NNE
Starlink AV 2.6 18:03:44 10° WNW 18:06:41 84° N 18:07:07 61° E
Starlink BD 2.6 18:03:57 10° WNW 18:06:54 84° NNE 18:07:20 61° E
Starlink BE 2.6 18:04:10 10° WNW 18:07:08 85° NNE 18:07:34 60° E
Starlink BM 2.6 18:04:25 10° WNW 18:07:22 85° NNE 18:07:46 62° E
Starlink H 2.8 18:04:15 10° WNW 18:07:29 84° NNE 18:08:12 51° E
Starlink AX 2.6 18:04:39 10° WNW 18:07:36 85° NNE 18:08:00 63° E
Starlink BH 2.6 18:04:51 10° WNW 18:07:47 85° N 18:08:11 63° E
Starlink AZ 2.6 18:05:04 10° WNW 18:08:00 85° N 18:08:24 64° E
Starlink BG 2.6 18:05:18 10° WNW 18:08:14 85° N 18:08:37 64° E
Starlink BF 2.5 18:05:31 10° WNW 18:08:28 85° NNE 18:08:50 65° E
Cosmos 1727 Rocket 3.9 18:02:24 10° N 18:08:38 84° E 18:14:49 10° S
Starlink BL 2.6 18:05:43 10° WNW 18:08:42 85° NNE 18:09:05 64° E
Starlink AH 2.5 18:05:59 10° WNW 18:08:56 85° NNE 18:09:16 66° E
Starlink AQ 2.6 18:06:03 10° WNW 18:09:01 85° NNE 18:09:23 65° E
Starlink AC 2.5 18:06:12 10° WNW 18:09:09 86° NNE 18:09:29 66° E
Starlink X 2.5 18:06:26 10° WNW 18:09:23 86° NNE 18:09:43 67° E
Starlink AE 2.6 18:06:37 10° WNW 18:09:35 86° N 18:09:57 65° E
Starlink F 2.8 18:06:22 10° WNW 18:09:37 85° NNE 18:10:15 54° E
Starlink Z 2.5 18:06:51 10° WNW 18:09:47 86° N 18:10:07 68° E
Starlink AK 2.5 18:07:06 10° WNW 18:10:03 86° NNE 18:10:21 68° E
Starlink AL 2.5 18:07:20 10° WNW 18:10:16 86° N 18:10:35 69° E
Starlink AD 2.5 18:07:33 10° WNW 18:10:30 86° NNE 18:10:48 70° E
Starlink Y 2.5 18:08:00 10° WNW 18:10:57 87° NNE 18:11:13 71° E
Starlink AG 2.5 18:08:14 10° WNW 18:11:10 87° NNE 18:11:26 71° E
Starlink W 2.5 18:08:24 10° WNW 18:11:23 87° NNE 18:11:40 70° E
Starlink AJ 2.5 18:08:39 10° WNW 18:11:36 87° NNE 18:11:51 72° E
Starlink G 2.8 18:08:29 10° WNW 18:11:44 86° N 18:12:17 58° E
Starlink AM 2.5 18:09:08 10° WNW 18:12:04 87° N 18:12:19 73° E
Starlink AP 2.5 18:09:20 10° WNW 18:12:16 87° N 18:12:30 74° E
Starlink AA 2.5 18:09:34 10° WNW 18:12:31 87° NNE 18:12:44 75° E
Starlink AF 2.5 18:09:47 10° WNW 18:12:43 88° N 18:12:56 75° E
Starlink AB 2.5 18:10:01 10° WNW 18:12:58 88° N 18:13:10 76° E
Starlink AN 2.5 18:10:16 10° WNW 18:13:13 88° NNE 18:13:24 76° E
Starlink L 2.8 18:10:36 10° WNW 18:13:51 87° NNE 18:14:20 62° E
Cosmos 2082 Rocket 4.3 18:13:44 10° NNW 18:15:28 11° N 18:17:12 10° NNE
Starlink A 2.8 18:12:44 10° WNW 18:15:59 88° NNE 18:16:23 66° E
SL-8 Rocket 4.2 18:10:11 10° SSW 18:16:29 73° WNW 18:22:45 10° N
Cosmos 1455 3.9 18:14:28 10° NNW 18:17:58 34° W 18:21:24 10° SSW
Starlink R 2.8 18:14:52 10° WNW 18:18:07 89° NNE 18:18:26 71° E
YAOGAN 1 2.9 18:14:59 10° S 18:19:18 68° WSW 18:23:38 10° NNW
ATLAS 5 CENTAUR R/B 3.5 18:15:33 10° WNW 18:19:29 24° N 18:21:38 19° NNE
CSL-04 Rocket 3.8 18:13:58 10° SSE 18:19:30 78° WSW 18:25:06 10° NNW
Starlink K 2.8 18:16:59 10° WNW 18:20:15 89° SE 18:20:28 75° ESE
Starlink M 2.8 18:19:05 10° WNW 18:22:21 89° S 18:22:30 80° ESE
Cosmos 1140 Rocket 3.8 18:18:36 10° NNW 18:23:40 45° ENE 18:24:58 38° E
H-2A R/B 2.4 18:27:11 39° ENE 18:27:33 40° ENE 18:32:22 10° N
Cosmos 1869 4.0 18:24:35 10° N 18:27:20 36° NNE 18:27:20 36° NNE
Cosmos 1939 Rocket 3.1 18:24:58 10° S 18:28:54 69° WSW 18:32:57 10° NNW
NOSS 3-3 (A) 4.4 18:24:45 10° NW 18:31:58 70° NE 18:36:30 28° ESE
NOSS 3-3 (C) 4.4 18:24:51 10° NW 18:32:04 70° NE 18:36:33 29° ESE
CZ-2D R/B 3.7 18:29:25 10° S 18:33:13 60° W 18:37:04 10° NNW
SWAS 4.3 18:31:26 10° SSW 18:35:46 82° ESE 18:36:42 54° NE
Cosmos 44 Rocket 3.8 18:37:22 10° SSW 18:41:16 41° SE 18:41:16 41° SE
SL-16 R/B 4.2 18:38:18 10° NW 18:43:07 29° WSW 18:47:56 10° SSW
Cosmos 1954 Rocket 4.3 18:39:27 10° NNW 18:44:32 48° NE 18:44:32 48° NE
COSMO-SKYMED 1 3.9 18:44:57 10° N 18:49:00 39° WNW 18:53:02 10° SW
Cosmos 1821 Rocket 3.9 18:43:59 10° S 18:50:18 73° E 18:56:35 10° NNE
Cosmos 2227 4.3 18:45:23 10° S 18:50:52 52° ESE 18:50:52 52° ESE
USA 267 3.3 18:48:27 37° NE 18:51:13 71° NNW 18:57:43 10° W
Cosmos 2082 4.3 18:49:08 10° SW 18:54:38 55° NW 18:58:17 21° NNE
Cosmos 1603 3.9 18:50:50 10° NW 18:56:30 68° WSW 19:00:32 19° SSE
SPOT 3 Rocket 4.2 18:58:16 40° NNE 18:58:16 40° NNE 19:01:53 10° N
Cosmos 1190 Rocket 3.9 18:52:42 10° NNW 18:58:04 90° ENE 18:59:35 48° SSE
Cosmos 407 Rocket 3.5 18:52:54 10° NNW 18:58:13 80° WSW 19:00:25 36° SSE
SL-8 R/B 3.9 18:54:28 10° WSW 18:59:11 56° S 18:59:12 56° S
Cosmos 2084 4.1 18:55:00 10° NW 18:58:28 47° N 18:58:28 47° N
Cosmos 2297 Rocket 3.6 18:55:45 10° WSW 19:00:53 34° NW 19:04:53 16° NNE
ARGOS 3.0 19:05:26 69° NE 19:05:26 69° NE 19:10:37 10° NNW
ISS -1.9 19:03:00 10° W 19:04:54 31° W 19:04:54 31° W
Cosmos 2263 Rocket 2.9 19:02:46 10° S 19:06:18 37° SSE 19:06:18 37° SSE
CZ-4 R/B 4.2 19:06:15 10° SW 19:09:09 18° W 19:12:07 10° NW
Cosmos 676 Rocket 4.0 19:04:55 10° NNW 19:09:48 68° NNE 19:09:48 68° NNE
ATLAS CENTAUR R/B 4.2 19:10:42 10° W 19:12:44 14° WSW 19:14:42 10° SW
Cosmos 2123 Rocket 3.9 19:06:42 10° N 19:13:04 87° ENE 19:16:36 28° S
Cosmos 2227 Rocket 3.7 19:09:12 10° WSW 19:14:13 31° NW 19:17:45 17° N
SL-24 R/B 4.4 19:15:15 83° NW 19:15:15 83° NW 19:20:28 10° NNW
Cosmos 967 Rocket 4.4 19:10:59 10° NW 19:17:32 83° NE 19:18:18 71° ESE
Ariane Rocket 3.8 19:17:21 10° S 19:22:16 49° W 19:27:13 10° NNW
CZ-2C R/B 3.2 19:22:59 73° N 19:22:59 73° N 19:28:10 10° NNW
Cosmos 1934 Rocket 4.1 19:17:32 10° S 19:29:06 13° NNE 19:29:40 10° NNE
Cosmos 1943 3.8 19:21:33 10° NW 19:27:02 53° WSW 19:28:59 36° SSW
Cosmos 2221 4.4 19:23:32 10° NNW 19:27:13 28° W 19:30:55 10° SSW
ADEOS Rocket 3.7 19:37:37 10° N 19:44:06 61° WNW 19:51:16 10° SW
USA 238 DEB 4.3 19:47:05 10° SSW 19:51:29 44° SSW 19:51:29 44° SSW
USA 238 4.3 19:47:12 10° SSW 19:51:32 43° SSW 19:51:32 43° SSW
Cosmos 2082 Rocket 4.4 19:57:38 10° NNW 19:59:04 15° N 19:59:04 15° N
ATLAS 5 CENTAUR R/B 3.9 20:00:55 10° NW 20:03:11 23° NNW 20:03:11 23° NNW
H-2A R/B 3.5 20:07:48 34° WNW 20:07:48 34° WNW 20:11:48 10° NNW
USA 267 4.1 20:35:47 44° NW 20:35:47 44° NW 20:40:20 10° WNW
